DLH1786 EDDM-LGAV

Flight info

Callsign DLH1786
Flight time N/A
Altitude 41000
Route VAVOR3E/08R VAVOR M867 RADIZ DCT REKTI DCT NEMEK DCT ELTIB DCT PINDO DCT PIKOS UL607 XORKI
Aircraft A359/H-SDE2E3GHIJ3J4J5LM1ORWXY/LB1D1

Departure

Time 2026-05-04 16:05
Airport Munich Airport (EDDM)

Arrival

Time N/A
Airport Athens Eleftherios Venizelos International Airport (LGAV)
Time Latitude Longitude Altitude Speed Heading
2026-05-04 15:32 48.35411 11.79326 1482 ft 0 kts 271°
2026-05-04 15:51 48.35411 11.79328 1492 ft 2 kts 271°
2026-05-04 15:52 48.35411 11.79352 1480 ft 2 kts 271°
2026-05-04 15:52 48.35411 11.79377 1485 ft 2 kts 270°
2026-05-04 15:52 48.35411 11.79402 1482 ft 2 kts 270°
2026-05-04 15:52 48.35410 11.79426 1478 ft 2 kts 263°
2026-05-04 15:53 48.35418 11.79447 1476 ft 2 kts 212°
2026-05-04 15:53 48.35433 11.79456 1492 ft 2 kts 183°
2026-05-04 15:53 48.35437 11.79456 1492 ft 0 kts 175°
2026-05-04 15:55 48.35436 11.79456 1492 ft 1 kts 175°
2026-05-04 15:55 48.35389 11.79466 1480 ft 11 kts 172°
2026-05-04 15:55 48.35305 11.79482 1483 ft 13 kts 173°
2026-05-04 15:56 48.35205 11.79497 1489 ft 16 kts 173°
2026-05-04 15:56 48.35088 11.79517 1483 ft 18 kts 173°
2026-05-04 15:56 48.34981 11.79536 1485 ft 10 kts 173°
2026-05-04 15:56 48.34978 11.79537 1484 ft 0 kts 173°
2026-05-04 15:57 48.34975 11.79537 1478 ft 3 kts 173°
2026-05-04 15:57 48.34941 11.79543 1490 ft 8 kts 173°
2026-05-04 15:57 48.34877 11.79555 1484 ft 11 kts 173°
2026-05-04 15:57 48.34804 11.79535 1476 ft 11 kts 224°
2026-05-04 15:58 48.34780 11.79416 1476 ft 13 kts 258°
2026-05-04 15:58 48.34769 11.79272 1481 ft 15 kts 263°
2026-05-04 15:58 48.34757 11.79107 1486 ft 17 kts 263°
2026-05-04 15:58 48.34742 11.78918 1492 ft 19 kts 263°
2026-05-04 15:59 48.34726 11.78710 1481 ft 21 kts 263°
2026-05-04 15:59 48.34710 11.78483 1476 ft 23 kts 264°
2026-05-04 15:59 48.34689 11.78242 1484 ft 24 kts 262°
2026-05-04 15:59 48.34670 11.77992 1492 ft 25 kts 264°
2026-05-04 16:00 48.34649 11.77721 1481 ft 27 kts 263°
2026-05-04 16:00 48.34628 11.77443 1482 ft 26 kts 263°
2026-05-04 16:00 48.34607 11.77171 1483 ft 27 kts 263°
2026-05-04 16:00 48.34585 11.76884 1482 ft 28 kts 264°
2026-05-04 16:01 48.34562 11.76590 1480 ft 28 kts 263°
2026-05-04 16:01 48.34540 11.76304 1483 ft 27 kts 264°
2026-05-04 16:01 48.34518 11.76015 1482 ft 28 kts 263°
2026-05-04 16:01 48.34495 11.75713 1480 ft 30 kts 263°
2026-05-04 16:02 48.34475 11.75456 1486 ft 18 kts 264°
2026-05-04 16:02 48.34462 11.75274 1482 ft 18 kts 264°
2026-05-04 16:02 48.34374 11.75070 1483 ft 13 kts 180°
2026-05-04 16:03 48.34274 11.75085 1484 ft 16 kts 174°
2026-05-04 16:03 48.34234 11.75092 1482 ft 1 kts 173°
2026-05-04 16:03 48.34187 11.75102 1479 ft 12 kts 167°
2026-05-04 16:03 48.34100 11.75209 1481 ft 19 kts 117°
2026-05-04 16:04 48.34094 11.75411 1482 ft 21 kts 83°
2026-05-04 16:04 48.34222 11.77097 1478 ft 144 kts 83°
2026-05-04 16:04 48.34357 11.78810 1767 ft 174 kts 82°
2026-05-04 16:05 48.34492 11.80595 2532 ft 171 kts 83°
2026-05-04 16:05 48.34624 11.82462 2970 ft 188 kts 83°
2026-05-04 16:05 48.34945 11.86776 3482 ft 224 kts 83°
2026-05-04 16:06 48.35126 11.89125 3956 ft 227 kts 83°
2026-05-04 16:06 48.35104 11.95427 5227 ft 238 kts 114°
2026-05-04 16:07 48.33620 11.97976 5835 ft 249 kts 141°
2026-05-04 16:07 48.29342 12.02391 7523 ft 251 kts 162°
2026-05-04 16:08 48.27601 12.02765 7989 ft 259 kts 179°
2026-05-04 16:08 48.22045 12.04417 9751 ft 276 kts 168°
2026-05-04 16:09 48.18311 12.05856 10983 ft 278 kts 168°
2026-05-04 16:09 48.14542 12.07313 11383 ft 282 kts 168°
2026-05-04 16:10 48.10720 12.08790 11742 ft 284 kts 168°
2026-05-04 16:11 48.04964 12.11011 12277 ft 287 kts 168°
2026-05-04 16:11 48.03026 12.11757 12456 ft 288 kts 168°
2026-05-04 16:12 47.97221 12.13992 12845 ft 285 kts 168°
2026-05-04 16:12 47.91688 12.17367 12545 ft 292 kts 148°
2026-05-04 16:13 47.88530 12.21220 12576 ft 297 kts 142°
2026-05-04 16:13 47.85419 12.25356 12693 ft 305 kts 142°
2026-05-04 16:14 47.82197 12.29541 12790 ft 310 kts 143°
2026-05-04 16:14 47.78798 12.33803 13064 ft 333 kts 143°
2026-05-04 16:15 47.73229 12.40739 14148 ft 356 kts 143°
2026-05-04 16:16 47.69405 12.45514 15068 ft 363 kts 143°
2026-05-04 16:16 47.63502 12.52774 16503 ft 372 kts 143°
2026-05-04 16:17 47.59543 12.57801 17456 ft 378 kts 141°
2026-05-04 16:18 47.53643 12.65809 18606 ft 391 kts 140°
2026-05-04 16:18 47.51634 12.68526 19096 ft 391 kts 140°
2026-05-04 16:19 47.45529 12.76677 20223 ft 398 kts 140°
2026-05-04 16:19 47.41376 12.82185 20990 ft 404 kts 140°
2026-05-04 16:20 47.35765 12.89608 21920 ft 411 kts 140°
2026-05-04 16:20 47.30783 12.96178 22680 ft 417 kts 140°
2026-05-04 16:21 47.24965 13.03839 23575 ft 424 kts 140°
2026-05-04 16:22 47.20531 13.09657 24155 ft 428 kts 140°
2026-05-04 16:22 47.13826 13.18436 25086 ft 432 kts 140°
2026-05-04 16:23 47.07033 13.27294 26022 ft 439 kts 140°
2026-05-04 16:24 46.97811 13.39267 27381 ft 447 kts 141°
2026-05-04 16:25 46.93127 13.45324 28120 ft 452 kts 141°
2026-05-04 16:26 46.83592 13.57615 29752 ft 462 kts 141°
2026-05-04 16:26 46.76282 13.66997 30742 ft 472 kts 141°
2026-05-04 16:27 46.71341 13.73321 31611 ft 474 kts 141°
2026-05-04 16:28 46.63843 13.82883 32636 ft 480 kts 141°
2026-05-04 16:28 46.56253 13.92605 33369 ft 491 kts 139°
2026-05-04 16:29 46.46534 14.06583 34825 ft 490 kts 137°
2026-05-04 16:30 46.39249 14.16973 35744 ft 492 kts 138°
2026-05-04 16:31 46.34320 14.23906 36288 ft 494 kts 138°
2026-05-04 16:31 46.26905 14.34304 37270 ft 493 kts 138°
2026-05-04 16:32 46.19499 14.44657 38116 ft 494 kts 138°
2026-05-04 16:33 46.14584 14.51505 38654 ft 494 kts 138°
2026-05-04 16:33 46.09632 14.58385 39067 ft 494 kts 138°
2026-05-04 16:34 46.04680 14.65249 39448 ft 494 kts 138°
2026-05-04 16:34 46.02200 14.68681 39643 ft 495 kts 138°
2026-05-04 16:35 45.94704 14.79019 40046 ft 498 kts 138°
2026-05-04 16:35 45.87180 14.89361 40566 ft 499 kts 138°
2026-05-04 16:36 45.84671 14.92799 40730 ft 499 kts 138°
2026-05-04 16:36 45.79647 14.99672 41005 ft 500 kts 138°
2026-05-04 16:37 45.72116 15.09939 41026 ft 500 kts 138°
2026-05-04 16:38 45.62007 15.23660 41026 ft 501 kts 138°
2026-05-04 16:39 45.49081 15.40294 41029 ft 500 kts 141°
2026-05-04 16:40 45.38485 15.53059 41026 ft 501 kts 141°
2026-05-04 16:41 45.25252 15.69150 41033 ft 501 kts 141°
2026-05-04 16:43 45.11971 15.85200 41046 ft 502 kts 141°
2026-05-04 16:43 45.03988 15.94796 41040 ft 502 kts 141°
2026-05-04 16:45 44.88033 16.14095 41046 ft 503 kts 140°
2026-05-04 16:46 44.74837 16.30237 41056 ft 504 kts 140°
2026-05-04 16:47 44.64202 16.43133 41065 ft 504 kts 140°
2026-05-04 16:48 44.53548 16.55988 41069 ft 505 kts 140°
2026-05-04 16:49 44.42899 16.68774 41079 ft 506 kts 140°
2026-05-04 16:50 44.32193 16.81564 41061 ft 506 kts 140°
2026-05-04 16:51 44.24149 16.91133 41073 ft 507 kts 140°
2026-05-04 16:52 44.13444 17.03810 41076 ft 506 kts 140°
2026-05-04 16:53 44.05387 17.13312 41078 ft 507 kts 140°
2026-05-04 16:54 43.94608 17.25966 41079 ft 507 kts 140°
2026-05-04 16:55 43.78402 17.44879 41083 ft 508 kts 140°
2026-05-04 16:56 43.64886 17.60545 41090 ft 508 kts 140°
2026-05-04 16:57 43.56747 17.69934 41094 ft 509 kts 140°
2026-05-04 16:58 43.45864 17.82435 41078 ft 509 kts 140°
2026-05-04 17:00 43.29530 18.01082 41077 ft 509 kts 140°
2026-05-04 17:01 43.15860 18.16585 41096 ft 510 kts 140°
2026-05-04 17:02 43.04903 18.28945 41115 ft 511 kts 141°
2026-05-04 17:03 42.96700 18.38159 41114 ft 511 kts 141°
2026-05-04 17:03 42.88456 18.47386 41122 ft 511 kts 141°
2026-05-04 17:04 42.77428 18.59679 41126 ft 512 kts 141°
2026-05-04 17:05 42.66382 18.71933 41105 ft 512 kts 141°
2026-05-04 17:06 42.58093 18.81090 41123 ft 512 kts 141°
2026-05-04 17:07 42.50725 18.89202 41110 ft 512 kts 141°
2026-05-04 17:07 42.44285 18.96273 41108 ft 512 kts 141°
2026-05-04 17:08 42.35957 19.05387 41100 ft 514 kts 141°
2026-05-04 17:09 42.30396 19.11455 41102 ft 514 kts 141°
2026-05-04 17:09 42.24839 19.17505 41100 ft 513 kts 141°
2026-05-04 17:10 42.10977 19.32535 41091 ft 513 kts 141°
2026-05-04 17:11 42.05409 19.38548 41091 ft 513 kts 141°
2026-05-04 17:12 41.97042 19.47556 41108 ft 513 kts 141°
2026-05-04 17:13 41.84040 19.61495 41113 ft 514 kts 141°
2026-05-04 17:14 41.71947 19.74391 41120 ft 514 kts 141°
2026-05-04 17:15 41.64450 19.82355 41137 ft 515 kts 141°
2026-05-04 17:16 41.53211 19.94248 41136 ft 515 kts 141°
2026-05-04 17:17 41.41982 20.06076 41132 ft 516 kts 141°
2026-05-04 17:18 41.30693 20.17912 41131 ft 517 kts 141°
2026-05-04 17:19 41.19380 20.29720 41123 ft 517 kts 142°
2026-05-04 17:20 41.08039 20.41506 41120 ft 518 kts 142°
2026-05-04 17:20 40.99550 20.50291 41114 ft 518 kts 142°
2026-05-04 17:21 40.88178 20.62015 41108 ft 518 kts 142°
2026-05-04 17:22 40.82483 20.67868 41107 ft 518 kts 142°
2026-05-04 17:23 40.71120 20.79503 41105 ft 518 kts 142°
2026-05-04 17:24 40.62580 20.88215 41107 ft 519 kts 142°
2026-05-04 17:25 40.51150 20.99829 41111 ft 519 kts 142°
2026-05-04 17:26 40.39686 21.11428 41109 ft 520 kts 142°
2026-05-04 17:27 40.25350 21.25859 41109 ft 521 kts 142°
2026-05-04 17:28 40.13830 21.37399 41107 ft 522 kts 142°
2026-05-04 17:29 39.96513 21.54650 41105 ft 522 kts 142°
2026-05-04 17:31 39.82784 21.70066 41109 ft 522 kts 139°
2026-05-04 17:32 39.69035 21.85537 41102 ft 523 kts 139°
2026-05-04 17:33 39.57998 21.97872 41102 ft 524 kts 139°
2026-05-04 17:34 39.46976 22.10134 41099 ft 524 kts 139°
2026-05-04 17:35 39.33116 22.25479 40785 ft 526 kts 139°
2026-05-04 17:35 39.30335 22.28549 40541 ft 527 kts 139°
2026-05-04 17:36 39.27546 22.31623 40305 ft 527 kts 139°
2026-05-04 17:36 39.24757 22.34694 40063 ft 527 kts 139°
2026-05-04 17:36 39.21965 22.37765 39617 ft 528 kts 139°
2026-05-04 17:36 39.19172 22.40834 39046 ft 528 kts 139°
2026-05-04 17:37 39.16377 22.43901 38408 ft 528 kts 139°
2026-05-04 17:37 39.13615 22.46930 37745 ft 529 kts 139°
2026-05-04 17:37 39.10808 22.50004 37064 ft 531 kts 139°
2026-05-04 17:37 39.07990 22.53087 36421 ft 533 kts 138°
2026-05-04 17:38 39.05117 22.56227 35771 ft 536 kts 138°
2026-05-04 17:38 39.02307 22.59294 35171 ft 538 kts 138°
2026-05-04 17:38 38.99446 22.62414 34564 ft 541 kts 138°
2026-05-04 17:38 38.96568 22.65549 33946 ft 543 kts 138°
2026-05-04 17:39 38.90785 22.71838 32607 ft 546 kts 138°
2026-05-04 17:39 38.87881 22.74991 31968 ft 547 kts 138°
2026-05-04 17:39 38.84971 22.78147 31328 ft 548 kts 138°
2026-05-04 17:40 38.82070 22.81288 30727 ft 543 kts 138°
2026-05-04 17:40 38.79207 22.84385 30124 ft 536 kts 138°
2026-05-04 17:40 38.76369 22.87452 29418 ft 530 kts 138°
2026-05-04 17:40 38.73569 22.90475 28731 ft 524 kts 138°
2026-05-04 17:41 38.70836 22.93423 28064 ft 518 kts 139°
2026-05-04 17:41 38.68094 22.96378 27408 ft 512 kts 139°
2026-05-04 17:41 38.65387 22.99291 26766 ft 506 kts 139°
2026-05-04 17:41 38.62708 23.02173 26141 ft 500 kts 139°
2026-05-04 17:42 38.60058 23.05020 25513 ft 494 kts 139°
2026-05-04 17:42 38.57426 23.07845 24683 ft 493 kts 139°
2026-05-04 17:42 38.54814 23.10644 24050 ft 488 kts 139°